Reflectivity
-20 -20 -20 -20 -20 -20 -20 -20 -20 -20 -20 -20 -20 -20 -20 -20 -20 -20 -20 -20 -20 -20 -20 -20 -20 -20 -11 -19 -20 -20 -20 -20 -20 -20 6 21 -17 -20 -20 -20 -20 -20 -20 -20 -14
-20 -20 -20 -20 -20 -20 -20 -20 -20 -20 -20 -20 -20 -20 -20 -20 -20 -20 -20 -20 -20 -20 -20 -20 -20 -20 -20 -14 -20 -20 -20 -20 1 -1 13 22 -6 -20 -20 -20 -20 -20 -20 -20 -18
-20 -20 -20 -20 -20 -20 -20 -20 -20 -20 -20 -20 -20 -20 -20 -20 -20 -20 -20 -20 -20 -20 -20 -20 -20 -20 -20 -20 -20 -20 -20 -20 -11 18 17 6 -18 -20 -20 -20 -20 -20 3 -16 -20
-20 -20 -20 -20 -20 -20 -20 -20 -20 -20 -20 7 13 15 -18 -20 -20 -20 -20 -20 -20 -20 -20 -20 -20 -20 -20 -20 -20 -20 -18 -17 -11 21 23 -8 -20 -20 -20 -20 -20 -20 -0 -20 -19
-20 -20 -20 -20 -20 -20 -20 -20 -20 -20 -20 -20 14 15 -20 -20 -20 -20 -20 -20 -20 -20 -20 -20 -20 -20 -20 -20 -20 -20 -14 4 -1 -2 4 4 -20 -20 -20 -20 -20 -20 -20 -20 -20
-20 -20 -20 -20 -20 -20 -20 -20 -20 -20 -20 -20 -11 12 -20 -20 -20 -20 -20 -20 -20 -20 -20 -20 -20 -20 -20 -20 -20 -20 2 -14 -2 -20 8 5 -20 -20 -20 2 -12 15 -7 -20 -20
-20 -20 -20 -20 -20 -20 -20 -20 -20 -20 -20 -19 14 -11 -20 -20 -20 -20 -20 -20 -20 -20 -20 -20 -20 -20 -20 -20 -20 -20 -18 -10 -4 -20 2 5 -7 -20 -20 -10 -20 16 -8 -16 -20
-20 -20 -20 -20 -20 -20 -20 -20 -20 -20 -20 -20 9 -20 -20 -20 -20 -20 -20 -20 -20 -20 -20 -20 -20 -20 -20 -20 -20 -20 -20 -8 -20 -20 -19 -8 -20 -20 3 -13 -6 -8 -20 -17 -20
-20 -20 -20 -20 -20 -20 -20 -20 -20 -20 -20 -20 -20 -20 -20 -20 -20 -20 -20 -20 -20 -20 -20 -20 -20 -20 -20 -20 -20 -20 -20 -19 -16 -20 -20 -20 -20 14 0 -20 -14 8 -20 -20 -20
-20 -20 -20 -20 -20 -20 -20 -20 -20 -20 -20 -20 -20 -20 -20 -20 -20 -20 -20 -20 -20 -20 -20 -20 -20 -20 -20 -20 -20 -20 -20 -20 -20 -11 -20 -20 -20 14 2 -4 -20 -11 -6 -20 -19
-20 -20 -20 -20 -20 -20 -20 -20 -20 -20 -20 -20 -20 -20 -20 -20 -20 -20 -20 -20 -20 -20 -20 -20 -20 -20 -20 -20 -20 -20 -20 -19 -14 -20 -16 -20 -20 4 12 9 -17 -20 -20 -15 -20
-20 -20 -20 -20 -20 -20 -20 -20 -20 -20 -17 -20 -20 -20 -20 -20 -20 -20 -20 -20 -20 -20 -20 -20 -20 -20 -20 -20 -20 -20 -20 -20 -2 -20 -20 -16 -20 -14 -3 -15 -20 -20 -20 -12 -19
-20 -20 -20 -20 -20 -20 -20 -20 -20 -20 -20 -20 -20 -20 -20 -20 -20 -20 -20 -20 -20 -20 -20 -20 -20 -20 -20 -20 -20 -20 -20 -20 1 -13 -14 -20 -20 -20 -17 -20 -9 -4 -20 -12 -11
-20 -20 -20 -20 -20 -20 -20 -20 -20 -20 -20 -20 -20 -20 -20 -20 -20 -20 -20 -20 -20 -20 -20 -20 -20 -20 -20 -20 -20 -20 -20 -20 -10 -14 -16 -20 -20 -20 -20 -19 -17 -3 -4 -20 14
-20 -20 -20 -20 -20 -20 -20 -20 -20 -20 -20 -20 -20 -20 -20 -20 -20 -20 6 -20 -20 -20 -20 -20 -20 -20 -20 -20 -20 -20 -20 -20 -20 -6 -20 -20 -20 -20 -20 -20 -20 -20 -20 -19 9
-20 -20 -20 -20 -20 -20 -20 -20 -20 -20 -20 -20 -20 -20 -20 -20 -20 -20 -20 -20 -20 -20 -20 -20 -20 -20 -20 -20 -20 -20 -20 -20 -20 -8 -19 -20 -20 -20 -20 -20 -20 -19 -20 -16 -1
-20 -20 -20 -20 -20 -20 -20 -20 -20 -20 -20 -20 -20 -20 -20 -20 -20 -20 -20 -20 -20 -20 -20 -20 -20 -20 -20 -20 -20 -20 -20 -20 -20 -19 -13 -20 -20 -20 -20 -20 -20 -20 -11 -14 -2
-20 -20 -20 -20 -20 -20 -20 -20 -20 -20 -20 -20 -20 -20 -1 -20 -20 -20 -19 17 -20 -20 -20 -20 -20 -20 -20 -20 -20 -20 -20 -20 -20 -20 -20 -20 -20 -20 -20 -20 -20 -20 -17 -18 -20
-20 -20 -20 -20 -20 -20 -20 -20 -11 -3 -15 -10 -19 -16 -19 -20 -20 -20 -6 16 5 -20 -17 -20 -20 -20 -20 -20 -20 -20 -20 -20 -20 -20 -20 -20 -20 -20 -20 -20 -20 -20 -20 -20 -20
-20 -20 -20 -20 -20 -20 -20 -20 14 -20 -19 -19 -15 1 -11 -20 -20 -20 -18 24 19 26 -16 -20 -20 -20 -20 -20 -20 -20 -20 -20 -20 -20 -20 -20 -20 -20 -20 -20 -20 -20 -20 -20 -20
-20 -20 -20 -20 -20 -20 -20 -20 -19 -20 -20 -20 6 -17 -6 -20 -20 -20 -2 22 13 15 11 -20 -17 -20 -20 -20 -20 -20 -20 -20 -20 -20 -20 -20 -20 -20 -20 -20 -20 -16 -20 -20 -20
-20 -20 -20 -20 -20 -20 -20 -20 -20 -20 -20 -20 -20 11 8 -18 -20 12 11 -17 5 13 18 5 -20 -20 -20 -20 -20 -20 -20 -20 -20 -20 -20 -20 -20 -20 -20 -20 -20 -20 -20 -20 -20
-20 -20 -20 -20 -20 -20 -20 -20 -20 -20 -20 -20 -20 -20 -20 -20 -17 6 -20 -20 -1 8 21 7 -19 -16 -20 -20 -20 -20 -20 -20 -20 -20 -20 -20 -20 -20 -20 -20 -20 -20 -20 -20 -20
-20 -20 -20 -20 -20 -20 -20 -20 -20 -20 -20 -20 -20 -20 -20 -20 -20 -20 -20 -20 -1 -0 19 23 1 4 -20 -20 -20 -20 -20 -20 -20 -20 -20 -20 -20 -20 -20 -20 -20 -20 -20 -20 -20
-20 -20 -20 -20 -20 -20 -20 -20 -6 -16 -20 -20 -20 7 12 -0 -20 -20 -20 -20 -18 6 -6 17 12 -20 -20 -20 -20 -20 -20 -20 -20 -20 -20 -20 -20 -20 -20 -20 -20 -20 -20 -20 -20
-20 -20 -20 -20 -20 -20 -20 -20 -18 -20 -20 -20 3 -20 2 8 -3 -12 -20 -20 -20 -0 -3 17 5 -8 19 -20 -20 -20 -20 -20 -20 -20 -20 -20 -20 -20 -20 -20 -20 -20 -20 -20 -20
-20 -20 -20 -20 -20 -20 -20 -0 -20 -16 -20 -20 -20 -8 -4 0 12 -18 -20 -20 -20 2 -1 12 12 -20 23 7 -20 -20 -20 -20 -20 -20 -20 -20 9 -20 -20 -9 -20 -20 -4 -20 -20
Wind_Speed
17 17 17 17 18 18 17 17 16 16 15 15 15 15 16 17 18 11 8 8 7 7 4 6 0 5 5 4 1 1 9 14 22 17 7 2 4 3 1 8 3 4 5 14 21
18 19 19 19 19 19 18 17 17 17 16 15 15 15 15 17 15 8 11 14 13 10 4 5 8 6 5 4 6 7 10 15 11 10 7 7 3 5 4 8 4 8 15 23 21
19 20 20 20 20 20 19 18 18 17 15 14 13 13 13 15 6 6 4 7 5 8 7 4 6 6 6 4 8 7 14 11 9 11 12 10 6 3 9 8 7 16 20 22 21
20 21 21 22 22 22 21 21 19 17 15 13 11 10 12 5 6 3 5 15 7 7 6 4 3 7 7 10 6 9 11 13 7 9 5 9 6 4 6 0 9 21 19 22 21
21 22 23 23 24 24 23 23 21 19 16 13 11 7 3 3 14 3 12 12 8 8 5 8 9 7 13 7 8 12 9 15 10 9 7 7 10 6 4 6 20 22 22 21 20
22 23 23 24 24 23 24 23 22 20 18 14 9 2 1 7 2 2 2 6 6 3 4 8 9 10 6 10 16 6 15 11 21 13 11 13 7 9 7 16 19 20 24 25 28
22 23 24 24 25 24 24 25 23 21 17 12 7 6 6 18 2 7 7 11 11 12 12 11 8 10 7 3 13 9 7 18 18 19 13 9 10 11 13 18 18 18 24 26 24
22 23 24 24 24 24 24 24 21 16 8 2 8 6 9 6 6 12 9 6 6 12 16 11 7 7 6 2 4 16 8 16 15 15 8 20 22 15 15 21 20 22 22 16 15
22 22 23 23 23 23 24 23 17 4 3 10 5 3 11 5 5 9 9 4 2 4 8 10 6 8 7 7 10 14 12 19 8 23 11 19 17 16 17 21 20 22 18 14 13
22 22 22 22 21 21 23 20 5 1 3 5 2 4 6 6 3 4 8 5 4 5 4 6 7 9 4 14 19 16 13 8 17 10 20 19 12 15 20 21 23 20 17 17 14
23 22 21 21 21 20 11 4 7 3 3 6 7 7 15 8 12 5 2 7 6 4 8 11 9 18 31 23 5 15 11 13 13 11 20 23 21 17 20 20 18 18 18 17 14
24 23 22 20 19 14 3 5 3 5 13 10 16 13 16 7 8 6 6 6 7 9 10 8 20 17 10 15 13 4 10 7 7 14 14 20 24 19 20 21 24 24 21 19 15
24 23 22 20 15 3 2 3 3 2 6 10 6 5 6 6 6 9 9 6 6 10 19 20 8 15 12 17 19 18 10 7 5 11 5 16 22 11 15 13 14 14 16 13 16
24 23 19 20 2 3 2 2 7 3 4 6 2 1 3 7 7 8 8 7 7 13 13 15 16 16 19 18 19 20 17 14 1 14 10 18 10 18 18 21 19 17 15 16 15
24 20 15 5 2 3 4 11 6 2 6 9 5 5 19 5 13 2 5 6 14 9 9 11 17 15 14 18 19 10 15 20 12 5 4 14 7 16 20 19 20 20 18 17 17
23 17 8 2 1 4 9 9 1 1 8 6 9 17 20 7 10 11 6 6 5 10 8 15 4 11 17 15 19 9 12 18 13 7 7 12 12 10 19 24 22 21 21 21 18
19 11 4 1 6 11 6 0 2 4 12 9 12 19 17 13 10 12 11 9 5 4 10 6 12 10 5 17 16 16 15 8 8 7 9 10 12 8 21 22 26 25 22 23 19
13 3 4 1 7 5 1 1 1 7 8 18 16 19 7 15 9 15 9 6 11 10 4 11 10 10 13 16 13 24 18 7 19 17 15 5 10 8 18 19 23 23 23 23 22
3 3 4 12 10 1 4 6 4 7 12 14 18 7 5 11 9 10 11 8 8 15 7 4 9 4 14 5 13 12 13 10 5 3 9 8 3 6 6 17 19 19 16 23 23
3 3 11 18 9 4 7 5 4 12 12 11 11 10 10 14 12 11 9 5 9 10 11 5 5 8 12 7 8 16 14 9 2 8 9 7 12 7 9 16 17 19 19 21 21
4 5 10 17 5 8 5 5 6 15 15 9 7 8 10 16 15 7 8 4 15 15 15 7 4 1 8 11 13 7 11 6 5 1 7 6 10 5 13 16 18 20 20 21 23
3 6 12 8 8 3 4 6 10 11 10 7 7 9 10 15 11 6 7 4 6 13 10 5 5 5 14 2 13 14 9 16 7 8 2 1 2 2 10 15 17 20 20 20 22
4 1 5 6 6 5 6 11 9 14 12 9 6 9 14 8 8 10 9 11 7 10 7 11 4 4 7 4 5 14 8 13 5 4 4 1 2 10 9 1 11 16 17 17 20
3 5 5 5 3 9 7 12 15 12 9 9 8 8 17 13 10 12 12 8 19 9 8 11 5 5 2 3 4 6 15 15 12 8 10 4 4 13 16 15 12 7 11 16 18
5 3 0 5 7 7 8 10 13 14 5 9 4 14 14 9 17 5 7 17 10 2 10 6 5 12 12 11 3 5 7 15 17 11 14 7 4 9 12 14 13 4 10 14 17
4 3 3 4 5 8 11 12 14 19 6 10 13 19 16 10 13 20 16 12 8 8 11 9 5 12 4 6 11 17 16 10 8 5 3 17 5 11 8 9 16 17 5 11 14
1 2 1 4 5 6 7 10 13 17 8 11 18 20 19 12 11 16 18 17 17 15 11 6 8 9 4 6 5 11 12 14 17 15 4 4 5 13 10 12 18 16 15 14 8
Wind_Direction
357 353 350 347 345 341 338 334 332 329 326 326 327 327 324 321 314 299 248 226 204 293 295 308 195 140 145 219 170 287 203 215 214 219 223 183 218 99 43 149 105 120 128 136 144
354 352 348 345 340 337 334 331 327 323 322 322 324 327 329 327 311 258 249 268 258 264 286 223 203 152 164 199 197 209 217 210 217 200 185 158 217 145 141 160 111 87 108 132 142
350 348 346 343 340 337 334 330 325 322 321 321 322 326 329 334 288 203 137 356 228 199 217 302 277 178 188 164 195 200 225 194 212 189 160 182 173 153 154 196 187 160 141 142 144
349 346 345 342 340 337 334 329 324 320 319 322 325 333 332 334 316 202 226 352 328 192 181 176 208 192 204 202 184 230 231 206 197 184 160 202 161 188 191 205 168 144 146 147 152
347 345 344 341 339 335 330 324 319 318 315 314 315 325 7 353 249 314 348 353 42 143 206 188 189 197 207 196 198 215 220 206 194 181 179 142 203 204 189 139 144 142 151 157 156
344 343 342 338 334 330 325 318 316 313 307 296 287 209 227 271 220 311 59 1 350 309 258 195 205 203 236 218 198 188 207 219 218 217 169 196 168 164 155 143 147 157 164 168 171
343 343 339 334 329 326 322 316 314 312 303 291 252 169 221 253 204 261 265 267 261 250 243 235 238 208 199 209 214 204 192 220 222 220 197 173 205 204 156 162 162 175 177 182 185
343 341 335 329 325 323 319 312 317 315 321 320 155 164 247 250 260 274 260 275 241 222 232 247 247 247 222 271 137 203 214 222 211 194 197 194 221 220 164 167 180 185 190 198 199
341 337 331 326 323 320 316 310 313 318 75 123 128 195 264 319 247 258 197 224 214 159 198 251 187 218 187 203 186 192 218 212 209 198 175 200 211 198 178 185 184 191 196 200 192
338 335 331 327 324 322 312 316 287 343 195 198 234 245 248 308 290 247 199 205 252 100 116 198 198 196 186 195 201 186 208 208 206 187 201 190 193 165 185 187 192 187 196 189 179
336 333 331 328 327 326 331 11 9 342 31 264 271 274 285 299 297 246 174 167 163 172 186 201 203 201 198 200 178 189 203 221 207 187 180 196 199 186 187 200 195 186 188 184 180
335 333 330 329 328 330 356 70 73 268 302 268 251 250 266 275 296 283 161 213 170 198 173 186 225 220 210 197 215 195 213 222 202 192 196 191 197 201 185 197 198 195 189 186 173
334 332 331 329 327 28 352 96 95 328 281 295 228 243 279 181 275 291 181 191 217 193 190 203 227 190 171 184 202 229 209 206 227 168 194 174 205 189 206 211 209 206 198 180 184
332 332 332 327 65 326 303 17 307 247 292 279 308 39 354 291 269 223 217 218 212 219 210 219 214 192 187 187 189 208 217 233 222 169 191 192 197 206 197 207 206 204 190 180 184
333 333 336 359 288 316 337 333 314 184 312 351 334 352 330 294 311 225 233 227 239 198 193 209 193 196 199 210 191 208 191 216 225 246 214 195 234 196 196 202 207 203 194 183 180
334 337 341 55 19 270 330 319 185 24 254 349 333 345 335 327 324 319 320 255 264 227 220 219 196 186 208 202 193 181 170 197 223 244 257 220 221 194 192 206 198 207 197 189 180
336 344 31 54 321 313 324 96 289 193 345 6 327 331 324 345 331 348 337 24 11 240 210 203 217 212 178 191 187 197 179 151 182 195 224 203 207 234 194 197 198 196 190 187 180
336 29 2 263 322 308 142 73 76 4 4 324 325 315 323 8 335 327 357 344 32 360 285 205 216 194 200 184 179 200 187 175 171 207 200 184 216 214 198 203 196 195 187 182 179
5 4 33 341 343 326 77 54 27 358 335 328 316 311 345 353 334 341 353 347 30 15 341 289 220 192 190 178 168 178 201 198 160 67 171 195 229 276 211 196 200 194 178 182 183
65 36 4 340 340 49 61 67 25 360 335 345 9 5 359 339 336 340 359 56 355 360 341 288 273 215 190 163 185 193 181 195 223 162 187 188 191 180 178 197 200 183 188 186 186
49 62 332 342 16 48 60 21 341 346 357 342 347 342 345 341 320 313 350 325 12 335 323 314 268 18 154 194 185 170 192 214 150 203 205 165 206 212 182 196 195 193 193 188 187
66 60 332 338 48 29 41 20 339 346 342 349 304 341 348 316 305 323 323 324 31 334 330 349 297 265 196 162 197 197 196 196 188 192 129 297 132 280 219 196 193 193 193 187 187
69 37 339 7 54 16 353 6 351 354 330 354 322 356 349 308 313 336 331 311 339 342 335 352 277 261 158 146 152 188 185 190 165 137 188 131 155 29 32 337 223 206 192 186 186
74 26 345 41 42 29 357 8 354 340 318 337 296 352 345 325 330 303 306 311 333 333 324 328 289 311 209 105 25 158 188 188 181 194 185 225 107 15 18 13 358 250 203 185 180
25 66 344 358 2 7 14 5 354 354 317 318 309 339 330 298 312 278 316 328 324 49 358 18 289 343 300 268 264 41 195 175 191 187 183 179 114 9 358 352 349 323 173 176 178
74 28 6 1 342 5 13 359 345 339 300 325 322 322 315 281 279 292 300 314 292 326 352 355 296 325 264 93 120 71 36 112 61 20 18 124 100 2 358 22 38 32 124 170 183
34 57 40 348 353 11 1 337 318 334 312 287 313 310 305 299 279 270 276 271 265 288 304 308 332 334 121 342 138 42 8 70 78 49 21 97 352 339 2 27 38 34 39 41 36